Weather History for Champaign, IL

Change the Weather History Date:

Friday, November 1, 2013

  Actual Average Record
Temperature  
Mean Temperature 47 °F 48 °F  
Max Temperature 54 °F 59 °F 80 °F (2000)
Min Temperature 40 °F 38 °F 24 °F (1996)
Degree Days  
Heating Degree Days 18 17  
Month to date heating degree days 18 17  
Since 1 July heating degree days 410 478  
Cooling Degree Days 0 0  
Month to date cooling degree days 0 0  
Year to date cooling degree days 1067 944  
Moisture  
Dew Point 44 °F    
Average Humidity 83    
Maximum Humidity 100    
Minimum Humidity 66    
Precipitation  
Precipitation 0.02 in 0.12 in 0.71 in (2004)
Month to date precipitation 0.02 0.12  
Year to date precipitation 28.78 33.82  
Sea Level Pressure  
Sea Level Pressure 29.66 in    
Wind  
Wind Speed 12 mph (WSW)    
Max Wind Speed 22 mph    
Max Gust Speed 25 mph    
Visibility 8 miles    
Events Rain    
T = Trace of Precipitation, MM = Missing Value Source: NWS Daily Summary

Daily Weather History Graph

Daily Weather History Graph

Search for Another Location

Airport:

Trip Planner

Search our weather history database for the weather conditions in past years. The results will help you decide how hot, cold, wet, or windy it might be!

Date:

Astronomy

Nov. 01, 2013 Rise Set
Actual Time 7:22 AM CDT 5:50 PM CDT
Civil Twilight 6:54 AM CDT 6:18 PM CDT
Nautical Twilight 6:22 AM CDT 6:50 PM CDT
Astronomical Twilight 5:50 AM CDT 7:21 PM CDT
Moon 5:14 AM CDT (11/1) 4:43 PM CDT (11/1)
Length of Visible Light 11h 24m
Length of Day
10h 27m
Waning Crescent, 4% of the Moon is Illuminated
Nov 1
Waning Crescent
Nov 3
New
Nov 9
First Quarter
Nov 17
Full
Nov 25
Last Quarter

Hourly Weather History & Observations

Time (CDT) Temp. Windchill Dew Point Humidity Pressure Visibility Wind Dir Wind Speed Gust Speed Precip Events Conditions
12:00 AM 48.2 °F - 44.6 °F 87% 29.54 in - West 19.6 mph 26.5 mph N/A   Overcast
12:12 AM 48.2 °F - 44.6 °F 87% 29.55 in - West 18.4 mph 26.5 mph N/A   Overcast
12:25 AM 48.2 °F - 44.6 °F 87% 29.55 in - West 27.6 mph 33.4 mph N/A   Overcast
12:53 AM 46.9 °F - 43.0 °F 86% 29.56 in - West 15.0 mph - N/A   Mostly Cloudy
1:02 AM 46.4 °F 40.7 °F 42.8 °F 87% 29.56 in - West 12.7 mph - N/A   Mostly Cloudy
1:12 AM 46.4 °F 40.1 °F 42.8 °F 87% 29.57 in - West 15.0 mph 20.7 mph 0.01 in   Mostly Cloudy
1:53 AM 46.0 °F 40.2 °F 43.0 °F 89% 29.57 in - WSW 12.7 mph - 0.01 in   Scattered Clouds
2:53 AM 46.0 °F 39.9 °F 44.1 °F 93% 29.57 in - SW 13.8 mph - N/A   Clear
3:36 AM 46.4 °F 39.8 °F 44.6 °F 93% 29.58 in - SW 16.1 mph - 0.01 in   Scattered Clouds
3:53 AM 45.0 °F 38.2 °F 44.1 °F 97% 29.58 in - SW 15.0 mph - 0.01 in   Partly Cloudy
4:53 AM 46.0 °F 39.6 °F 44.1 °F 93% 29.60 in - SW 15.0 mph - N/A   Scattered Clouds
5:08 AM 46.4 °F 40.1 °F 44.6 °F 93% 29.60 in - SW 15.0 mph - N/A   Mostly Cloudy
5:53 AM 46.0 °F 39.6 °F 44.1 °F 93% 29.62 in 6.0 mi SW 15.0 mph - N/A   Overcast
6:14 AM 46.4 °F 40.7 °F 44.6 °F 93% 29.62 in 6.0 mi SW 12.7 mph - N/A   Overcast
6:41 AM 44.6 °F 39.2 °F 42.8 °F 93% 29.62 in 6.0 mi SW 10.4 mph - N/A   Partly Cloudy
6:53 AM 45.0 °F 39.7 °F 43.0 °F 93% 29.62 in 6.0 mi WSW 10.4 mph - N/A   Clear
7:53 AM 44.1 °F 40.1 °F 43.0 °F 96% 29.63 in 3.0 mi WSW 6.9 mph - N/A   Clear
8:53 AM 46.9 °F - 45.0 °F 93% 29.66 in 3.0 mi SW 8.1 mph - N/A   Mostly Cloudy
9:01 AM 46.4 °F 41.5 °F 44.6 °F 93% 29.65 in 3.0 mi WSW 10.4 mph - N/A   Mostly Cloudy
9:27 AM 48.2 °F - 46.4 °F 93% 29.66 in 4.0 mi WSW 9.2 mph - N/A   Mostly Cloudy
9:53 AM 48.9 °F - 46.0 °F 90% 29.67 in 5.0 mi West 12.7 mph - N/A   Overcast
10:00 AM 48.2 °F - 46.4 °F 93% 29.67 in 6.0 mi West 13.8 mph - N/A   Overcast
10:53 AM 51.1 °F - 46.0 °F 83% 29.68 in 6.0 mi West 11.5 mph - N/A   Haze
11:51 AM 51.8 °F - 44.6 °F 76% 29.68 in 10.0 mi WSW 11.5 mph - N/A   Mostly Cloudy
11:53 AM 51.1 °F - 44.1 °F 77% 29.68 in 10.0 mi West 12.7 mph - N/A   Mostly Cloudy
12:53 PM 53.1 °F - 44.1 °F 71% 29.68 in 10.0 mi WSW 13.8 mph - N/A   Overcast
1:53 PM 54.0 °F - 43.0 °F 66% 29.68 in 10.0 mi West 20.7 mph 25.3 mph N/A   Overcast
2:53 PM 52.0 °F - 41.0 °F 66% 29.69 in 10.0 mi West 16.1 mph - N/A   Overcast
3:53 PM 51.1 °F - 41.0 °F 68% 29.71 in 10.0 mi West 16.1 mph 23.0 mph N/A   Overcast
4:53 PM 51.1 °F - 42.1 °F 71% 29.72 in 10.0 mi West 10.4 mph - N/A   Overcast
5:53 PM 50.0 °F - 42.1 °F 74% 29.73 in 10.0 mi West 10.4 mph - N/A   Overcast
6:53 PM 50.0 °F - 42.1 °F 74% 29.76 in 10.0 mi West 11.5 mph - N/A   Overcast
7:53 PM 48.9 °F - 43.0 °F 80% 29.78 in 10.0 mi West 9.2 mph - N/A   Overcast
8:53 PM 48.0 °F - 42.1 °F 80% 29.79 in 10.0 mi WNW 11.5 mph 20.7 mph 0.00 in Rain Light Rain
9:53 PM 46.9 °F - 43.0 °F 86% 29.81 in 10.0 mi West 8.1 mph - 0.00 in   Overcast
10:53 PM 42.1 °F 38.4 °F 39.9 °F 92% 29.81 in 10.0 mi SW 5.8 mph - N/A   Mostly Cloudy
11:53 PM 41.0 °F 37.1 °F 39.0 °F 93% 29.81 in 10.0 mi WSW 5.8 mph - N/A   Clear